sat.trackr.live / text

‹ back to catalog

KUIPER-00079

NORAD 64826 · 2025-151L

PAYLOAD ACTIVE UNKNOWN

§ Identity

Operator
Country
US
Launch date
2025-07-16
Launch site
AFETR
Launch vehicle
Mass (kg)
RCS (m²)

External: N2YO · Heavens-Above · Gunter

§ Orbital elements

Epoch: 2026-05-25T04:53:32.208000Z

Period
97.30 min
Inclination
51.9006°
Eccentricity
0.0000703
Mean motion
14.79934049 rev/d
Perigee alt
629.0 km
Apogee alt
630.0 km
Semi-major
7,007.7 km
B*
2.7632e-4
RAAN
322.2121°
Arg perigee
106.5108°
Mean anomaly
253.5932°
Rev number
4,783

§ Raw data

KUIPER-000791 64826U 25151L   26145.20384500  .00001886  00000+0  27632-3 0  99952 64826  51.9006 322.2121 0000703 106.5108 253.5932 14.79934049 47834

JSON: /api/v1/satellites/64826 · /tle

For live sub-satellite position, see the globe view (requires WebGL).

§ Visibility from observer

Set your observer location to see the next 7 days of passes ≥ 10°. The values pass through the URL so the page stays shareable.

No JS? Fill the form by hand. The geolocation button needs JavaScript.